• In Deutschland
  • Länderverzeichnis
  • Für 7 Tage
  • Wassertemperatur
  • Satellitenkarten
  • Wetterkarte
  • Widgets
  • user-avatar
    Anmelden

    Stündliche Wetter Nakhidka

    Heute, 26 September, Mittwoch

    Zeit Temperatur Niederschläge Wind Luftdruck Luftfeuchtigkeit
    00:00 +9°C° 0 mm 5 m/S 765 mmHg 69%
    01:00 +9°C° 0 mm 5 m/S 765 mmHg 71%
    02:00 +8°C° 0 mm 5 m/S 766 mmHg 72%
    03:00 +8°C° 0 mm 5 m/S 766 mmHg 74%
    04:00 +8°C° 0 mm 4 m/S 766 mmHg 75%
    05:00 +7°C° 0 mm 4 m/S 767 mmHg 76%
    06:00 +8°C° 0 mm 5 m/S 767 mmHg 71%
    07:00 +9°C° 0 mm 5 m/S 768 mmHg 67%
    08:00 +10°C° 0 mm 5 m/S 768 mmHg 62%
    09:00 +12°C° 0 mm 5 m/S 768 mmHg 56%
    10:00 +13°C° 0 mm 5 m/S 769 mmHg 50%
    11:00 +14°C° 0 mm 5 m/S 769 mmHg 44%
    12:00 +15°C° 0 mm 5 m/S 769 mmHg 41%
    13:00 +15°C° 0 mm 5 m/S 769 mmHg 39%
    14:00 +15°C° 0 mm 5 m/S 769 mmHg 37%
    15:00 +15°C° 0 mm 5 m/S 769 mmHg 38%
    16:00 +14°C° 0 mm 4 m/S 769 mmHg 39%
    17:00 +14°C° 0 mm 4 m/S 769 mmHg 40%
    18:00 +13°C° 0 mm 4 m/S 769 mmHg 42%
    19:00 +12°C° 0 mm 3 m/S 769 mmHg 44%
    20:00 +11°C° 0 mm 3 m/S 770 mmHg 45%
    21:00 +11°C° 0 mm 3 m/S 770 mmHg 46%
    22:00 +11°C° 0 mm 3 m/S 770 mmHg 47%
    23:00 +11°C° 0 mm 3 m/S 770 mmHg 48%

    Morgen, 27 September, Donnerstag

    Zeit Temperatur Niederschläge Wind Luftdruck Luftfeuchtigkeit
    00:00 +10°C° 0 mm 3 m/S 770 mmHg 50%
    01:00 +10°C° 0 mm 3 m/S 770 mmHg 52%
    02:00 +9°C° 0 mm 3 m/S 770 mmHg 54%
    03:00 +9°C° 0 mm 3 m/S 770 mmHg 56%
    04:00 +8°C° 0 mm 3 m/S 769 mmHg 59%
    05:00 +8°C° 0 mm 2 m/S 769 mmHg 61%
    06:00 +9°C° 0 mm 2 m/S 769 mmHg 58%
    07:00 +10°C° 0 mm 2 m/S 769 mmHg 54%
    08:00 +13°C° 0 mm 2 m/S 769 mmHg 51%
    09:00 +14°C° 0 mm 2 m/S 769 mmHg 46%
    10:00 +15°C° 0 mm 2 m/S 769 mmHg 40%
    11:00 +16°C° 0 mm 2 m/S 769 mmHg 35%
    12:00 +16°C° 0 mm 2 m/S 769 mmHg 33%
    13:00 +17°C° 0 mm 3 m/S 768 mmHg 31%
    14:00 +17°C° 0 mm 3 m/S 768 mmHg 30%
    15:00 +17°C° 0 mm 3 m/S 767 mmHg 32%
    16:00 +16°C° 0 mm 3 m/S 767 mmHg 35%
    17:00 +14°C° 0 mm 3 m/S 767 mmHg 37%
    18:00 +13°C° 0 mm 3 m/S 767 mmHg 41%
    19:00 +12°C° 0 mm 3 m/S 767 mmHg 45%
    20:00 +12°C° 0 mm 2 m/S 767 mmHg 48%
    21:00 +12°C° 0 mm 2 m/S 767 mmHg 50%
    22:00 +10°C° 0 mm 2 m/S 767 mmHg 51%
    23:00 +10°C° 0 mm 2 m/S 767 mmHg 52%

    übermorgen, 28 September, Freitag

    Zeit Temperatur Niederschläge Wind Luftdruck Luftfeuchtigkeit
    00:00 +10°C° 0 mm 2 m/S 766 mmHg 53%
    01:00 +10°C° 0 mm 2 m/S 766 mmHg 53%
    02:00 +10°C° 0 mm 2 m/S 766 mmHg 53%
    03:00 +10°C° 0 mm 2 m/S 765 mmHg 53%
    04:00 +10°C° 0 mm 3 m/S 765 mmHg 54%
    05:00 +9°C° 0 mm 3 m/S 765 mmHg 54%
    06:00 +11°C° 0 mm 3 m/S 764 mmHg 50%
    07:00 +13°C° 0 mm 3 m/S 764 mmHg 46%
    08:00 +14°C° 0 mm 3 m/S 764 mmHg 43%
    09:00 +17°C° 0 mm 2 m/S 764 mmHg 40%
    10:00 +18°C° 0 mm 2 m/S 764 mmHg 37%
    11:00 +20°C° 0 mm 2 m/S 764 mmHg 35%
    12:00 +21°C° 0 mm 2 m/S 763 mmHg 35%
    13:00 +21°C° 0 mm 2 m/S 763 mmHg 35%
    14:00 +21°C° 0 mm 2 m/S 762 mmHg 35%
    15:00 +21°C° 0 mm 2 m/S 762 mmHg 38%
    16:00 +20°C° 0 mm 2 m/S 761 mmHg 42%
    17:00 +19°C° 0 mm 2 m/S 761 mmHg 45%
    18:00 +18°C° 0 mm 2 m/S 761 mmHg 49%
    19:00 +17°C° 0 mm 2 m/S 761 mmHg 52%
    20:00 +16°C° 0 mm 2 m/S 761 mmHg 55%
    21:00 +15°C° 0 mm 2 m/S 761 mmHg 58%
    22:00 +15°C° 0 mm 2 m/S 761 mmHg 60%
    23:00 +15°C° 0 mm 1 m/S 761 mmHg 63%

    29 September, Samstag

    Zeit Temperatur Niederschläge Wind Luftdruck Luftfeuchtigkeit
    00:00 +14°C° 0 mm 1 m/S 760 mmHg 64%
    01:00 +14°C° 0 mm 1 m/S 760 mmHg 66%
    02:00 +14°C° 0 mm 1 m/S 760 mmHg 68%
    03:00 +14°C° 0 mm 1 m/S 760 mmHg 69%
    04:00 +14°C° 0 mm 1 m/S 760 mmHg 71%
    05:00 +13°C° 0 mm 1 m/S 760 mmHg 72%
    06:00 +15°C° 0 mm 1 m/S 760 mmHg 67%
    07:00 +16°C° 0 mm 1 m/S 760 mmHg 63%
    08:00 +18°C° 0 mm 1 m/S 760 mmHg 58%
    09:00 +20°C° 0 mm 1 m/S 760 mmHg 55%
    10:00 +21°C° 0 mm 1 m/S 760 mmHg 51%
    11:00 +22°C° 0 mm 1 m/S 760 mmHg 47%
    12:00 +23°C° 0 mm 2 m/S 759 mmHg 46%
    13:00 +23°C° 0 mm 2 m/S 759 mmHg 45%
    14:00 +23°C° 0 mm 2 m/S 759 mmHg 44%
    15:00 +23°C° 0 mm 2 m/S 759 mmHg 47%
    16:00 +21°C° 0 mm 3 m/S 759 mmHg 50%
    17:00 +20°C° 0 mm 3 m/S 759 mmHg 53%
    18:00 +19°C° 0 mm 2 m/S 759 mmHg 55%
    19:00 +18°C° 0 mm 2 m/S 759 mmHg 57%
    20:00 +17°C° 0 mm 2 m/S 760 mmHg 60%
    21:00 +18°C° 0 mm 1 m/S 759 mmHg 60%
    22:00 +18°C° 0 mm 1 m/S 759 mmHg 60%
    23:00 +16°C° 0 mm 1 m/S 759 mmHg 61%

    30 September, Sonntag

    Zeit Temperatur Niederschläge Wind Luftdruck Luftfeuchtigkeit
    00:00 +16°C° 0 mm 1 m/S 759 mmHg 62%
    01:00 +16°C° 0 mm 1 m/S 759 mmHg 63%
    02:00 +15°C° 0 mm 1 m/S 759 mmHg 63%
    03:00 +15°C° 0 mm 1 m/S 760 mmHg 65%
    04:00 +15°C° 0 mm 2 m/S 760 mmHg 66%
    05:00 +15°C° 0 mm 2 m/S 760 mmHg 67%
    06:00 +16°C° 0 mm 2 m/S 760 mmHg 63%
    07:00 +18°C° 0 mm 2 m/S 760 mmHg 60%
    08:00 +19°C° 0 mm 3 m/S 761 mmHg 57%
    09:00 +21°C° 0 mm 3 m/S 761 mmHg 53%
    10:00 +22°C° 0 mm 4 m/S 761 mmHg 49%
    11:00 +25°C° 0 mm 4 m/S 761 mmHg 44%
    12:00 +25°C° 0 mm 4 m/S 760 mmHg 44%
    13:00 +25°C° 0 mm 5 m/S 760 mmHg 44%
    14:00 +25°C° 0 mm 5 m/S 760 mmHg 44%
    15:00 +23°C° 0 mm 4 m/S 760 mmHg 47%
    16:00 +22°C° 0 mm 4 m/S 760 mmHg 49%
    17:00 +21°C° 0 mm 3 m/S 760 mmHg 52%
    18:00 +20°C° 0 mm 3 m/S 760 mmHg 56%
    19:00 +19°C° 0 mm 3 m/S 760 mmHg 60%
    20:00 +18°C° 0 mm 3 m/S 761 mmHg 64%
    21:00 +18°C° 0 mm 3 m/S 760 mmHg 66%
    22:00 +18°C° 0 mm 4 m/S 760 mmHg 69%
    23:00 +17°C° 0 mm 4 m/S 760 mmHg 71%

    1 Oktober, Montag

    Zeit Temperatur Niederschläge Wind Luftdruck Luftfeuchtigkeit
    00:00 +17°C° 0 mm 4 m/S 760 mmHg 74%
    01:00 +17°C° 0 mm 4 m/S 760 mmHg 77%
    02:00 +15°C° 0 mm 4 m/S 760 mmHg 80%
    03:00 +15°C° 0 mm 4 m/S 759 mmHg 82%
    04:00 +15°C° 0 mm 4 m/S 759 mmHg 83%
    05:00 +15°C° 0 mm 4 m/S 759 mmHg 85%
    06:00 +16°C° 0 mm 5 m/S 759 mmHg 80%
    07:00 +17°C° 0 mm 5 m/S 759 mmHg 76%
    08:00 +19°C° 0 mm 6 m/S 759 mmHg 71%
    09:00 +20°C° 0 mm 6 m/S 759 mmHg 66%
    10:00 +21°C° 0 mm 6 m/S 759 mmHg 61%
    11:00 +22°C° 0 mm 6 m/S 758 mmHg 56%
    12:00 +22°C° 0 mm 6 m/S 758 mmHg 55%
    13:00 +22°C° 0 mm 6 m/S 757 mmHg 54%
    14:00 +22°C° 0 mm 6 m/S 757 mmHg 53%
    15:00 +22°C° 0 mm 6 m/S 757 mmHg 56%
    16:00 +21°C° 0 mm 5 m/S 756 mmHg 60%
    17:00 +20°C° 0 mm 5 m/S 756 mmHg 63%
    18:00 +19°C° 0 mm 4 m/S 756 mmHg 67%
    19:00 +18°C° 0 mm 4 m/S 756 mmHg 71%
    20:00 +17°C° 0 mm 4 m/S 756 mmHg 75%
    21:00 +17°C° 0 mm 3 m/S 755 mmHg 76%
    22:00 +17°C° 0 mm 3 m/S 755 mmHg 76%
    23:00 +17°C° 0 mm 3 m/S 755 mmHg 77%
    Mehr zeigen